Flag for Palestinian Territories Weather past 2 weeks in Nablus, West Bank, Palestinian Territories

82 °F

Passing clouds.

Feels Like: 86 °F
Forecast: 65 / 78 °F
Wind: 1 mph from North

Location: Ben Gurion International Airport

Current Time: Oct 13, 2015 at 10:30:12 AM

Latest Report: Oct 13, 2015 at 9:50 AM

Visibility: N/A

Pressure: 29.98 "Hg (28.22 "Hg at 534m altitude)

Humidity: 66%

Dew point: 70 °F

Location of NablusLocation

Historic Weather in Nablus — Graph


Nablus temperature yesterday

Maximum temperature yesterday: 90 °F (at 12:50 PM)
Minimum temperature yesterday: 72 °F (at 3:20 AM)
Average temperature yesterday: 80 °F

Past Weeks' High & Low Weather Summary

High95 °F (Oct 11, 2:20 PM)94% (Oct 7, 6:50 AM)30.12 "Hg (Oct 7, 6:50 AM)
Low68 °F (Oct 7, 2:50 AM)32% (Oct 11, 12:20 PM)29.74 "Hg (Oct 7, 1:50 AM)
Average79 °F68%29.93 "Hg
* Reported Sep 28 9:20 AM — Oct 13 9:20 AM, Nablus, Weather by CustomWeather, © 2015

Note: Actual official high and low records may vary slightly from our data, if they occured in-between our weather recording intervals... More about our weather records


Nablus weather history for previous 24 hours

Time TempWeatherWind HumidityBarometerVisibility
9:20 AM
Tue, Oct 13
79 °FPassing clouds.5 mph74%29.98 "HgN/A
8:50 AM77 °FSunny.5 mph74%29.98 "Hg10 mi
8:20 AM75 °FSunny.3 mph78%29.98 "Hg10 mi
7:50 AM73 °FSunny.6 mph83%29.95 "Hg10 mi
7:20 AM72 °FClear.1 mph88%29.95 "Hg6 mi
6:20 AM73 °FClear.5 mph83%29.95 "Hg10 mi
5:50 AM73 °FClear.5 mph89%29.95 "Hg10 mi
5:20 AM73 °FClear.2 mph89%29.95 "Hg10 mi
4:50 AM72 °FClear.1 mph94%29.95 "Hg10 mi
4:20 AM75 °FClear.2 mph83%29.95 "Hg10 mi
3:50 AM75 °FClear.3 mph78%29.95 "Hg10 mi
3:20 AM75 °FClear.5 mph89%29.95 "Hg10 mi
2:50 AM75 °FClear.3 mph83%29.95 "Hg10 mi
2:20 AM75 °FClear.2 mph89%29.95 "Hg10 mi
1:50 AM75 °FClear.1 mph89%29.95 "Hg10 mi
1:20 AM77 °FClear.2 mph83%29.95 "Hg10 mi
12:50 AM77 °FClear.2 mph83%29.95 "Hg10 mi
12:20 AM77 °FClear.2 mph83%29.95 "Hg10 mi
11:50 PM
Mon, Oct 12
79 °FClear.2 mph74%29.95 "Hg10 mi
11:20 PM79 °FClear.2 mph79%29.95 "Hg10 mi
10:50 PM79 °FClear.3 mph79%29.95 "Hg10 mi
10:20 PM79 °FClear.6 mph79%29.95 "Hg10 mi
9:50 PM79 °FClear.7 mph79%29.95 "Hg10 mi
9:20 PM79 °FClear.6 mph79%29.95 "Hg10 mi
8:50 PM81 °FClear.9 mph79%29.95 "Hg10 mi
8:20 PM81 °FClear.10 mph74%29.95 "Hg10 mi
7:50 PM81 °FClear.12 mph74%29.95 "Hg10 mi
7:20 PM82 °FClear.3 mph58%29.92 "Hg10 mi
6:50 PM84 °FClear.3 mph55%29.92 "Hg10 mi
6:20 PM84 °FClear.7 mph55%29.89 "Hg10 mi
5:50 PM84 °FSunny.8 mph62%29.89 "Hg10 mi
5:20 PM86 °FSunny.9 mph49%29.89 "Hg10 mi
4:50 PM84 °FSunny.9 mph55%29.89 "Hg10 mi
4:20 PM88 °FSunny.9 mph49%29.89 "Hg10 mi
3:50 PM86 °FSunny.10 mph49%29.89 "Hg10 mi
3:20 PM88 °FSunny.12 mph49%29.89 "Hg10 mi
2:50 PM88 °FSunny.13 mph46%29.89 "Hg10 mi
2:20 PM88 °FSunny.12 mph49%29.89 "Hg10 mi
1:50 PM90 °FSunny.9 mph49%29.89 "Hg10 mi
1:20 PM88 °FSunny.8 mph49%29.89 "Hg10 mi
12:50 PM90 °FSunny.7 mph49%29.89 "Hg10 mi
12:20 PM86 °FSunny.2 mph46%29.92 "Hg10 mi
11:50 AM86 °FSunny.5 mph52%29.92 "Hg10 mi
11:20 AM88 °FSunny.2 mph55%29.95 "Hg10 mi
10:50 AM86 °FSunny.2 mph59%29.95 "Hg10 mi
10:20 AM82 °FSunny.3 mph66%29.95 "Hg10 mi
Weather by CustomWeather, © 2015

See weather overviewHow to use our weather pages